Location: Luxembourg
(49.6117°N, 6.1300°E)
Time: 11:18:26
(UTC+01:00)

OTV 5 (USA 277) - Visible Passes

Search period start: 24 January 2019 00:00
Search period end: 03 February 2019 00:00
Orbit: 339 x 349 km, 54.5° (Epoch: 15 January)

Date Brightness Start Highest point End Pass type
(mag) Time Alt. Az. Time Alt. Az. Time Alt. Az.
24 Jan ? 07:09:38 10° SE 07:09:48 10° SE 07:09:57 10° SE visible
25 Jan ? 07:30:39 10° SSW 07:33:06 25° SE 07:35:35 10° E visible
27 Jan ? 06:43:07 10° SSW 06:45:33 24° SE 06:48:00 10° E visible
28 Jan ? 07:06:10 10° SW 07:09:03 61° SSE 07:11:57 10° ENE visible
29 Jan ? 05:57:37 22° SSE 05:58:00 23° SE 06:00:24 10° E visible
29 Jan ? 07:29:49 10° WSW 07:32:43 60° NNW 07:35:37 10° ENE visible
30 Jan ? 06:20:54 46° SSW 06:21:29 59° SSE 06:24:22 10° ENE visible
31 Jan ? 05:12:35 11° E 05:12:35 11° E 05:12:48 10° E visible
31 Jan ? 06:44:01 32° W 06:45:08 62° NNW 06:48:02 10° ENE visible
01 Feb ? 05:35:35 22° ENE 05:35:35 22° ENE 05:36:47 10° ENE visible
01 Feb ? 07:07:01 16° WNW 07:08:56 36° NNW 07:11:42 10° ENE visible
02 Feb ? 05:58:29 37° NE 05:58:29 37° NE 06:00:29 10° ENE visible
02 Feb ? 07:30:11 10° WNW 07:32:49 29° N 07:35:28 10° ENE visible
